Regional Weather Roundup
Issued by NWS

Home | Current Version | Previous Version | Text Only | Print | Product List | Glossary Off
Versions: 1 2 3 4 5 6 7 8 9 10 11 12 13 14 15 16 17 18 19 20 21 22 23 24 25 26 27 28 29 30 31 32 33 34 35 36 37 38 39 40 41 42 43 44 45 46 47 48 49 50

000
ASUS45 KCYS 250910
RWRWY

WYOMING REGIONAL WEATHER ROUNDUP
NATIONAL WEATHER SERVICE CHEYENNE WY
200 AM MST THU DEC 25 2014

NOTE:  "FAIR" INDICATES FEW OR NO CLOUDS BELOW 12,000 FEET
WITH NO SIGNIFICANT WEATHER AND/OR OBSTRUCTIONS TO VISIBILITY.

WYZ001-251000-
YELLOWSTONE NATIONAL PARK

CITY           SKY/WX    TMP DP  RH WIND       PRES   REMARKS
LK YELLOWSTONE   N/A     22  20  92 CALM      29.37S
W YELLOWSTONE  NOT AVBL

$$
WYZ002>013-054>058-071-098>099-251000-
NORTHERN WYOMING

CITY           SKY/WX    TMP DP  RH WIND       PRES   REMARKS
JACKSON        CLOUDY    28  28 100 SW5       29.34S WCI  23
CODY           CLOUDY    28  27  93 NW9       29.44R WCI  20
GREYBULL       LGT SNOW  30  29  96 NW14      29.43R VSB 3/4 WCI  19
WORLAND        CLOUDY    21  16  81 CALM      29.42R
SHERIDAN       LGT SNOW  30  28  92 N5        29.51R FOG     WCI  25
BUFFALO        LGT SNOW  29  27  92 NW12      29.47R FOG     WCI  19
GILLETTE       CLOUDY    29  25  85 N14       29.43R WCI  18
HULETT           N/A    N/A N/A N/A MISG        N/A
NEWCASTLE      FAIR      32  25  74 E6        29.41S WCI  26

$$
WYZ014>020-022>026-101>103-251000-
CENTRAL WYOMING

CITY           SKY/WX    TMP DP  RH WIND       PRES   REMARKS
BIG PINEY      CLOUDY    24  19  81 SE6       29.36F WCI  17
PINEDALE       CLOUDY    28  27  93 SE7       29.37F WCI  21
DUBOIS         NOT AVBL
LANDER         CLOUDY    24  17  74 VRB3      29.35S
RIVERTON       FAIR      27  19  72 S7        29.36S WCI  19
CASPER         CLOUDY    35  23  61 SW14      29.40R WCI  26
DOUGLAS        CLOUDY    39  23  52 N9        29.40R WCI  33

$$
WYZ021-027>030-104>119-251000-
SOUTHERN WYOMING

CITY           SKY/WX    TMP DP  RH WIND       PRES   REMARKS
EVANSTON       LGT SNOW  30  28  92 SW18G33   29.38S VSB 1   WCI  18
KEMMERER       LGT SNOW  32  30  93 SW12      29.36F WCI  23
FORT BRIDGER   PTSUNNY   33  28  81 W15G24    29.39F WCI  23
ROCK SPRINGS   CLOUDY    27  16  63 S13       29.38F WCI  16
DIXON          CLOUDY    32  20  62 S20G35    29.53F WCI  20
RAWLINS        FAIR      29  17  61 SW20G28   29.43S WCI  16
SARATOGA       CLOUDY    32  23  69 SE15G21   29.46S WCI  22
LARAMIE        FAIR      30  20  66 SW14      29.43R WCI  19
CHEYENNE       FAIR      31  18  58 CALM      29.42F
TORRINGTON     CLOUDY    34  24  67 NE6       29.42R WCI  29
PINE BLUFFS    CLOUDY    32  23  69 CALM      29.43F

$$



USA.gov is the U.S. government's official web portal to all federal, state and local government web resources and services.